Regional Weather Roundup
Issued by NWS Northern Indiana

Home | Current Version | Previous Version | Graphics & Text | Print | Product List | Glossary On
Versions: 1 2 3 4 5 6 7 8 9 10 11 12 13 14 15 16 17 18 19 20 21 22 23 24 25 26 27 28 29 30 31 32 33 34 35 36 37 38 39 40 41 42 43 44 45 46 47 48 49 50
000
ASUS43 KIWX 060200
RWRIWX

KIWX WEATHER ROUNDUP
NATIONAL WEATHER SERVICE NORTHERN INDIANA
1000 PM EDT THU MAY 05 2016

NOTE: "FAIR" INDICATES FEW OR NO CLOUDS BELOW 12,000 FEET WITH NO
SIGNIFICANT WEATHER AND/OR OBSTRUCTIONS TO VISIBILITY.

* THESE STATIONS ARE NOT UNDER NWS QUALITY CONTROL. THEY ALSO MAY NOT
  REPORT WEATHER SUCH AS PRECIPITATION OR FOG.

INZ001>027-060300-
NORTHERN INDIANA

CITY           SKY/WX    TMP DP  RH WIND       PRES   REMARKS
GARY*          PTCLDY    46  46 100 CALM      29.99R
SOUTH BEND     CLEAR     44  39  82 NW5       29.97S
GOSHEN         CLEAR     51  41  68 NW10      29.95R
ANGOLA*          N/A     55  45  67 NW7       29.93R
FORT WAYNE     PTCLDY    57  45  64 NW9       29.93R
PERU/GRISSOM   CLEAR     54  43  67 NW10      29.93R

$$
INZ028>050-060300-
CENTRAL INDIANA

CITY           SKY/WX    TMP DP  RH WIND       PRES   REMARKS
LAFAYETTE      CLEAR     51  41  68 N6        29.96R
KOKOMO*        CLEAR     54  43  66 NW9       29.94R
MUNCIE*        PTCLDY    56  46  69 N10       29.91R
INDIANAPOLIS   PTCLDY    55  43  63 NW9       29.92R

$$
MIZ043>046-050>051-056>058-064>065-071>073-077>080-060300-
SOUTHWEST LOWER MICHIGAN

CITY           SKY/WX    TMP DP  RH WIND       PRES   REMARKS
BATTLE CREEK   MOCLDY    56  40  55 NW10      29.94R
BENTON HARBOR  CLEAR     42  37  82 CALM      29.97R
COLDWATER*     PTCLDY    56  41  58 NW6       29.93R
HILLSDALE*     CLEAR     53  38  57 CALM      29.91R
HOLLAND        CLEAR    N/A N/A N/A CALM      29.96R
GRAND RAPIDS   PTCLDY    57  41  55 NW7       29.93R
KALAMAZOO      CLEAR     53  38  56 NW10      29.94R
STURGIS*       CLEAR     52  41  66 NW7       29.93R
THREE RIVERS*  FAIR      52  40  61 NW8       29.95R

$$
OHZ001>008-015>018-024>025-060300-
NORTHWEST OHIO

CITY           SKY/WX    TMP DP  RH WIND       PRES   REMARKS
DEFIANCE       CLEAR     58  37  45 N7        29.90R
FINDLAY        CLEAR     56  37  49 N6        29.87R
TOLEDO EXPRESS CLEAR     55  39  54 N6        29.89R
TOLEDO METCALF CLEAR     55  40  56 CALM      29.89R
LIMA           MOCLDY    53  45  74 N3        29.88R

$$
AND FOR LAKE MICHIGAN COASTAL AND OPEN LAKE BUOY OBSERVATIONS

STATION/POSITION TEMP    WIND        PRES    VSBY  WAVE
                 AIR SEA DIR/SP/G                  HT/PER
                 (F)     (DEG/KT/KT) (MB)    (MI)  (FT/S)
CALUMET HARBOR    46                 1014.6F
MICHIGAN CITY     46      30/  3/  3   N/A
BURNS HARBOR      48      60/  3/  5 1015.6
SAINT JOSEPH      46     340/  4/  4 1015.2R
SOUTH LAKE BUOY   42 40  320/  2/  2 1014.7          2/ 5
4 MI NW BRIDGMAN  45 47                N/A           3/ 5

$$
&&



USA.gov is the U.S. government's official web portal to all federal, state and local government web resources and services.